Location: Newark
(45.5000°N, 11.4167°E)
Time: 14:36:08
(UTC+00:00)

Transit 2A Rocket - Pass Details

Date: 25 August 2019
Orbit: 592 x 911 km, 66.7° (Epoch: 19 September)

Event Time Altitude Azimuth Distance (km) Brightness Sun altitude
Rises 17:29:06 0° 202° (SSW) 3,454 8.5 5.4°
Reaches altitude 10° 17:31:40 10° 200° (SSW) 2,485 7.8 5.0°
Maximum altitude 17:37:21 66° 119° (ESE) 882 5.2 4.0°
Drops below altitude 10° 17:42:36 10° 38° (NE) 2,298 7.2 3.1°
Sets 17:44:54 0° 36° (NE) 3,176 8.0 2.7°
